This demonstration page uses our WeatherBlox Daily Observations layout. Learn more.

Left ArrowRight Arrow

Hourly Observations for May 17, 2022

Temp ( °F °C ) Dew Point ( °F °C ) Humidity (%) Winds ( mph kmh ) Pressure ( in mb ) Visibility ( mi km ) Precip ( " mm )
12:54 am 00:54 Clear 63 17.2 51 10.6 65 65 S 8 13 29.91 1013 10 16 0.00 0.00
1:54 am 01:54 Clear 67 19.4 51 10.6 57 57 SSW 10 17 29.92 1013 10 16 0.00 0.00
2:54 am 02:54 Partly Cloudy 65 18.3 51 10.6 61 61 S 8 13 29.91 1013 10 16 0.00 0.00
3:54 am 03:54 Clear 63 17.2 52 11.1 68 68 S 9 15 29.89 1012 10 16 0.00 0.00
4:54 am 04:54 Clear 64 17.8 52 11.1 65 65 S 13 20 29.84 1011 10 16 0.00 0.00
5:54 am 05:54 Clear 65 18.3 51 10.6 61 61 S 13 20 29.84 1010 10 16 0.00 0.00
6:54 am 06:54 Sunny 64 17.8 52 11.1 65 65 SSE 8 13 29.85 1011 10 16 0.00 0.00
7:54 am 07:54 Sunny 68 20 54 12.2 61 61 S 8 13 29.86 1011 10 16 0.00 0.00
8:54 am 08:54 Sunny 71 21.7 54 12.2 55 55 SSE 14 22 29.85 1011 10 16 0.00 0.00
9:54 am 09:54 Sunny 75 23.9 56 13.3 52 52 SSE 18 30 29.85 1011 10 16 0.00 0.00
10:54 am 10:54 Sunny 78 25.6 59 15 52 52 S 15 24 29.84 1011 10 16 0.00 0.00
11:54 am 11:54 Partly Cloudy 80 26.7 60 15.6 51 51 ESE 10 17 29.82 1010 10 16 0.00 0.00
12:39 pm 12:39 Partly Cloudy with Nearby Thunderstorms 82 27.8 61 16.1 49 49 SSE 12 19 29.77 1008 10 16 0.00 0.00
12:54 pm 12:54 Mostly Sunny 80 26.7 59 15 49 49 VRB 6 9 29.80 1009 10 16 0.00 0.00
1:54 pm 13:54 Partly Cloudy 77 25 61 16.1 58 58 NE 13 20 29.80 1009 10 16 0.00 0.00
2:54 pm 14:54 Mostly Cloudy 76 24.4 61 16.1 60 60 NE 24 39 29.81 1010 10 16 0.00 0.00
3:54 pm 15:54 Sunny 73 22.8 58 14.4 59 59 E 17 28 29.80 1009 10 16 0.00 0.00
4:54 pm 16:54 Sunny 72 22.2 57 13.9 59 59 E 18 30 29.79 1009 10 16 0.00 0.00
5:54 pm 17:54 Sunny 72 22.2 59 15 64 64 ESE 13 20 29.77 1008 10 16 0.00 0.00
6:54 pm 18:54 Sunny 74 23.3 61 16.1 64 64 ESE 14 22 29.75 1007 10 16 0.00 0.00
7:54 pm 19:54 Sunny 73 22.8 60 15.6 64 64 SE 13 20 29.75 1008 10 16 0.00 0.00
8:54 pm 20:54 Clear 72 22.2 61 16.1 68 68 ESE 10 17 29.71 1006 10 16 0.00 0.00
9:54 pm 21:54 Partly Cloudy 71 21.7 61 16.1 71 71 ESE 8 13 29.72 1006 10 16 0.00 0.00
10:37 pm 22:37 Cloudy with Nearby Thunderstorms 71 21.7 62 16.7 73 73 NE 8 13 29.72 1006 10 16 0.00 0.00
10:54 pm 22:54 Cloudy with Light Rain 71 21.7 62 16.7 73 73 ENE 8 13 29.74 1007 10 16 0.00 0.00
11:07 pm 23:07 Cloudy with Nearby Thunderstorms 70 21.1 63 17.2 79 79 E 7 11 29.73 1007 10 16 0.00 0.00
11:25 pm 23:25 Cloudy with Thunderstorms 67 19.4 62 16.7 84 84 N 18 30 29.79 1009 5 8 0.00 0.00
11:33 pm 23:33 Cloudy with Thunderstorms 67 19.4 63 17.2 87 87 NNE 17 28 29.80 1009 3 4 0.07 1.78
11:40 pm 23:40 Cloudy with Strong Thunderstorms 67 19.4 64 17.8 91 91 ENE 13 20 29.78 1008 2 2 0.23 5.84
11:46 pm 23:46 Cloudy with Thunderstorms 68 20 64 17.8 87 87 ESE 14 22 29.75 1007 3 5 0.29 7.37
11:54 pm 23:54 Cloudy with Thunderstorms 70 21.1 64 17.8 82 82 E 14 22 29.72 1007 10 16 0.29 7.37

Powered by AerisWeather